Location: Givhans Ferry State Park
(33.0284°N, 80.3868°W)
Time: 01:59:13
(UTC-04:00)

Daily predictions for brighter satellites

Satellite Brightness Start Highest point End
(mag) Time Altitude Azimuth Time Altitude Azimuth Time Altitude Azimuth
H-2A R/B 4.1 00:22:52 22° WNW 00:22:52 22° WNW 00:25:40 10° NW
NOSS 3-1 (C) 4.1 00:13:51 10° NNW 00:21:03 74° NNE 00:21:03 74° NNE
Cosmos 2369 Rocket 3.6 00:26:50 34° N 00:26:50 34° N 00:30:01 10° NNE
USA 234 4.3 00:20:14 10° NNE 00:26:13 40° NW 00:30:12 20° W
Terra 4.5 00:35:40 14° WNW 00:35:40 14° WNW 00:36:40 10° NW
Cosmos 1943 Rocket 4.0 00:59:42 26° NNE 00:59:42 26° NNE 01:02:02 10° NNE
ATLAS 3B CENTAUR R/B 4.4 01:12:50 58° ESE 01:12:50 58° ESE 01:34:21 10° E
ATLAS 2AS CENTAUR R/B 3.5 01:56:21 10° NNW 02:02:08 51° NW 02:02:08 51° NW
Cosmos 2227 Rocket 3.7 02:23:07 10° N 02:27:28 31° NE 02:27:28 31° NE
Cosmos 2297 Rocket 3.5 02:44:12 10° N 02:49:18 33° ENE 02:49:22 33° ENE
ATLAS CENTAUR R/B 3.6 02:53:11 30° NNE 02:53:11 30° NNE 02:55:44 10° NNE
SeaSat 1 4.2 02:57:59 27° NNW 02:57:59 27° NNW 03:00:10 10° NNW
Cosmos 1464 Rocket 4.2 03:15:30 65° NNW 03:15:30 65° NNW 03:20:53 10° N
Cosmos 1656 4.1 03:23:43 59° N 03:23:43 59° N 03:28:17 10° NNE
Meteor 1-24 Rocket 4.5 03:20:08 10° N 03:25:44 49° E 03:26:30 46° ESE
NOSS 3-4 (A) 4.4 03:20:26 10° NNW 03:27:21 55° ENE 03:34:37 10° SE
NOSS 3-4 (C) 4.4 03:20:33 10° NNW 03:27:30 54° NE 03:34:47 10° SE
Cosmos 841 Rocket 4.0 03:33:02 58° NE 03:33:02 58° NE 03:37:27 10° NNE
Cosmos 1898 Rocket 4.4 03:27:11 10° NNW 03:30:43 42° NNW 03:30:43 42° NNW
IRS-1C 4.5 03:31:43 10° N 03:36:06 59° NNW 03:36:06 59° NNW
CZ-2D R/B 3.1 03:32:09 10° NNE 03:37:13 39° E 03:37:44 38° ESE
Cosmos 1763 Rocket 3.8 03:38:11 62° NNE 03:38:11 62° NNE 03:42:30 10° NNE
Cosmos 1937 Rocket 3.9 03:37:03 10° NNW 03:41:09 57° N 03:41:09 57° N
Cosmos 1953 3.9 03:47:49 33° ENE 03:47:49 33° ENE 03:50:54 10° NNE
Cosmos 1697 Rocket 2.9 03:53:03 59° NW 03:53:03 59° NW 03:58:21 10° NNE
ARIANE 5 R/B 2.4 03:54:32 10° NNE 03:59:43 90° WSW 03:59:43 90° WSW
Cosmos 1980 Rocket 2.0 04:01:23 81° SW 04:01:39 86° WNW 04:07:20 10° NNE
Cosmos 540 Rocket 4.2 04:00:53 40° SE 04:01:48 44° ESE 04:06:42 10° NNE
Cosmos-2242 3.3 04:06:27 65° ENE 04:06:27 65° ENE 04:10:24 10° NNE
ADEOS 4.2 04:04:31 10° N 04:09:06 42° WNW 04:09:06 42° WNW
Okean O Rocket 3.4 04:07:32 10° NE 04:11:16 27° E 04:13:02 21° SE
BREEZE-M R/B 4.1 04:06:00 10° NW 04:11:56 83° SW 04:19:46 10° SE
Cosmos 2227 Rocket 3.9 04:07:15 10° NW 04:09:13 19° WNW 04:09:13 19° WNW
Resurs 1-4 Rocket 1.9 04:07:47 10° NNE 04:13:03 89° WNW 04:13:46 68° SSW
MOS 1-B 4.5 04:07:19 10° NNE 04:13:08 70° ESE 04:14:57 44° S
Cosmos 2322 Rocket 3.1 04:12:14 31° SSE 04:14:15 43° ESE 04:19:31 10° NE
BREEZE-M DEB (TANK) 3.3 04:13:42 52° W 04:14:27 59° NW 04:18:24 10° NE
Cosmos 1408 Rocket 3.6 04:14:23 10° N 04:18:18 66° NW 04:18:18 66° NW
Aureole 1 Rocket 4.5 04:17:36 32° SSE 04:20:06 55° E 04:27:05 10° NNE
Cosmos 1766 Rocket 3.5 04:18:55 10° N 04:23:05 70° WNW 04:23:05 70° WNW
Nadezhda 4 Rocket 4.2 04:21:52 10° NNW 04:27:49 50° W 04:28:54 45° WSW
IRS-1D 3.7 04:25:01 10° N 04:29:47 47° WNW 04:30:11 46° W
ATLAS CENTAUR R/B 4.0 04:29:31 12° WNW 04:30:21 13° NW 04:32:38 10° NNW
SL-16 R/B 2.4 04:27:43 35° S 04:30:27 70° WSW 04:36:36 10° NNW
Cosmos 2297 Rocket 3.6 04:28:29 10° NW 04:31:06 22° WNW 04:31:06 22° WNW
Cosmos 1470 3.4 04:37:58 34° SSE 04:39:22 54° E 04:43:14 10° NNE
Cosmos 1842 Rocket 3.6 04:39:09 42° S 04:40:38 82° E 04:45:07 10° N
Cosmos 1655 Rocket 4.2 04:34:36 10° N 04:41:01 73° E 04:47:22 10° SSE
CZ-2D R/B 3.5 04:41:56 10° N 04:46:19 74° WNW 04:47:36 45° SSW
SL-16 R/B 2.2 04:45:30 31° SSW 04:48:18 83° ESE 04:54:00 10° NNE
Cosmos 1461 3.9 04:46:28 10° NNW 04:50:24 45° ENE 04:54:11 10° SE
PSLV R/B 3.6 04:48:00 10° NNE 04:51:49 84° E 04:53:02 42° S
GPS 2-04 Rocket1 2.8 04:50:41 32° WNW 04:52:27 71° N 04:56:18 10° E
SL-24 R/B - RUBIN 2 4.4 04:51:12 35° SW 04:53:33 62° WNW 04:59:45 10° NNE
ARGOS Delta rocket 4.3 04:52:40 10° NNE 04:57:38 61° E 05:01:39 14° S
Okean-O 4.5 04:54:28 10° NE 04:58:19 28° E 05:02:08 10° SSE
USA 81 4.1 04:56:04 29° SSW 04:58:41 62° W 05:03:55 10° N
Cosmos 2026 Rocket 3.9 04:52:27 10° N 04:58:45 74° W 05:04:56 10° S
Cosmos 332 Rocket 4.2 05:00:31 33° WSW 05:02:06 44° WNW 05:06:43 10° N
Cosmos 2180 Rocket 4.5 04:57:28 16° S 05:02:41 84° W 05:09:06 10° N
Cosmos 372 Rocket 4.0 04:58:38 10° NNW 05:03:45 81° ENE 05:08:50 10° SSE
Cosmos 2263 Rocket 4.2 04:59:51 10° N 05:04:41 29° ENE 05:09:29 10° ESE
UNKNOWN OBJECT B 3.9 05:04:22 10° NNW 05:07:33 25° WNW 05:07:58 24° W
CZ-4B R/B 2.7 05:04:27 10° NNE 05:08:18 81° ESE 05:10:38 21° S
SWAS 4.5 05:09:25 23° SSW 05:12:03 81° ESE 05:16:22 10° NNE
Cosmos 1437 3.8 05:10:35 10° NNW 05:13:16 28° W 05:13:16 28° W
CZ-4B R/B 3.1 05:08:28 10° N 05:13:59 78° WNW 05:18:31 15° SSW
Cosmos 2151 3.4 05:10:29 10° N 05:14:46 64° E 05:19:00 10° SSE
DELTA 2 R/B (1) 3.5 05:11:24 24° WSW 05:14:48 89° NNW 05:20:25 10° ENE
CZ-2D R/B 3.5 05:12:53 10° NNW 05:16:58 22° WNW 05:19:03 18° W
Milstar 3 Cent rocket 2.8 05:13:35 22° WSW 05:17:08 55° S 05:26:10 10° ESE
Cosmos 1733 3.2 05:15:23 25° SSW 05:17:19 56° W 05:21:04 10° N
PAYLOAD B 4.3 05:12:40 10° N 05:18:14 68° WNW 05:22:57 14° SSW
IRS-1C Rocket 4.4 05:14:27 10° N 05:19:29 48° WNW 05:23:01 19° SW
Delta 128 4.1 05:17:49 25° SW 05:20:01 44° S 05:24:34 10° ESE
ADEOS II 3.2 05:15:33 10° NNE 05:20:33 43° E 05:25:31 10° S
Cosmos 1125 Rocket 4.0 05:15:50 10° NW 05:20:35 37° W 05:25:19 10° SSW
Meteor 1-16 Rocket 4.5 05:15:16 10° S 05:21:10 77° E 05:27:05 10° N
Cosmos 371 Rocket 3.8 05:18:44 23° SW 05:21:18 43° WNW 05:25:53 10° N
Cosmos 1544 4.5 05:21:58 20° W 05:22:28 21° WNW 05:25:18 10° NNW
Cosmos 1953 4.4 05:23:35 12° WNW 05:23:45 12° WNW 05:25:28 10° NW
ISS -1.7 05:29:47 18° SSW 05:29:47 18° SSW 05:31:19 10° S
ASTRO E2 4.3 05:29:48 17° SSW 05:30:02 17° SSW 05:32:40 10° SSE
Cosmos 1500 Rocket 4.2 05:26:18 10° NNW 05:30:15 34° W 05:33:35 13° SSW
Cosmos 1328 3.8 05:26:41 10° N 05:30:44 88° W 05:34:44 10° S
GEOS 3 Rocket 3.9 05:26:21 10° S 05:31:19 44° WSW 05:36:17 10° NW
CZ-2C R/B 4.2 05:31:50 10° S 05:36:16 41° W 05:40:39 10° NNW
Aureole 3 4.4 05:34:20 10° N 05:39:02 73° E 05:45:06 10° S
Cosmos 2228 Rocket 4.3 05:38:08 10° SSE 05:42:22 45° E 05:46:40 10° NNE
CZ-3 R/B 3.1 05:16:58 13° WSW 05:43:14 65° S 05:49:54 10° E
Cosmos 2221 2.7 05:40:38 10° SSW 05:44:48 53° W 05:49:00 10° N
Cosmos 2360 Rocket 2.2 05:40:32 10° SSW 05:46:08 83° WNW 05:51:49 10° NNE
Cosmos 1980 Rocket 4.3 05:45:38 10° WNW 05:46:28 10° NW 05:47:17 10° NW
Okean O Rocket 3.0 05:44:07 10° NNW 05:47:27 21° WNW 05:50:30 11° WSW
Cosmos 1674 4.0 05:48:59 10° NW 05:51:49 20° W 05:54:37 10° SW
Cosmos 1633 Rocket 3.9 05:49:00 10° N 05:53:19 54° E 05:57:37 10° SSE
Cosmos 1346 3.0 05:51:48 10° N 05:54:50 89° ENE 05:57:51 10° S
Abrixas 3.0 05:52:26 10° WNW 05:55:18 38° SW 05:58:10 10° SSE
Meteor 2-1 Rocket 4.3 05:50:33 10° SSW 05:56:10 64° W 06:01:42 10° N
Meteor 1-11 4.2 05:52:09 10° NNW 05:57:45 74° W 06:03:24 10° S
Cosmos 2322 Rocket 3.6 05:54:10 10° WSW 05:58:25 22° WNW 06:02:42 10° N
Cosmos 1680 Rocket 3.6 05:53:25 10° SSW 05:58:37 85° ESE 06:03:52 10° NNE
Cosmos 2058 3.0 05:56:03 10° NNW 06:00:11 56° W 06:04:17 10° S
Delta 2 Rocket 3.5 05:56:53 10° SW 06:00:26 52° SSE 06:04:25 10° E
Thor Agena Rocket 4.0 05:57:45 10° SSW 06:02:22 36° W 06:07:01 10° NNW
OTV 4 3.0 06:03:11 10° S 06:04:52 14° SE 06:06:33 10° ESE
Cosmos 1437 Rocket 3.2 06:01:20 10° S 06:05:05 65° E 06:08:55 10° NNE
Cosmos 1703 4.1 06:01:14 10° N 06:05:11 57° E 06:09:04 10° SSE
RESURS DK-1 3.7 06:03:34 10° WNW 06:06:34 20° WSW 06:09:34 10° SSW
Meteor PRIRODA 3.9 06:05:06 10° N 06:08:40 50° WNW 06:12:14 10° SSW
Feng Yun 1-1 Rocket 4.4 06:04:00 10° N 06:09:26 55° WNW 06:14:43 10° SSW
